TimeCST,TemperatureF,Dew PointF,Humidity,Sea Level PressureIn,VisibilityMPH,Wind Direction,Wind SpeedMPH,Gust SpeedMPH,PrecipitationIn,Events,Conditions,WindDirDegrees,DateUTC
12:03 AM,42.8,42.8,100,29.77,2.5,SSE,11.5,-,N/A,,Mostly Cloudy,160,2012-12-03 06:03:00
12:10 AM,42.8,41.0,93,29.76,3.0,SSE,11.5,-,N/A,,Scattered Clouds,160,2012-12-03 06:10:00
12:53 AM,44.1,41.0,89,29.75,4.0,SSE,11.5,-,N/A,,Partly Cloudy,150,2012-12-03 06:53:00
1:07 AM,44.6,42.8,93,29.73,4.0,SE,15.0,-,N/A,,Mostly Cloudy,140,2012-12-03 07:07:00
1:38 AM,44.6,42.8,93,29.71,4.0,SSE,17.3,-,N/A,,Scattered Clouds,150,2012-12-03 07:38:00
1:53 AM,46.0,43.0,89,29.71,4.0,SSE,16.1,24.2,N/A,,Mostly Cloudy,150,2012-12-03 07:53:00
2:05 AM,46.4,44.6,93,29.70,3.0,SSE,15.0,-,N/A,,Overcast,160,2012-12-03 08:05:00
2:14 AM,46.4,46.4,100,29.70,2.0,South,17.3,23.0,N/A,,Overcast,170,2012-12-03 08:14:00
2:21 AM,46.4,46.4,100,29.70,1.0,South,15.0,26.5,N/A,,Overcast,170,2012-12-03 08:21:00
2:28 AM,46.4,46.4,100,29.70,0.5,South,15.0,-,N/A,Fog,Fog,170,2012-12-03 08:28:00
2:53 AM,48.0,46.0,93,29.69,0.5,South,19.6,24.2,N/A,Fog,Fog,170,2012-12-03 08:53:00
3:53 AM,48.0,46.9,96,29.67,0.5,South,17.3,-,N/A,Fog,Fog,170,2012-12-03 09:53:00
4:21 AM,46.4,46.4,100,29.64,1.0,South,17.3,-,N/A,,Overcast,170,2012-12-03 10:21:00
4:53 AM,46.9,46.0,97,29.65,1.5,South,16.1,23.0,N/A,,Overcast,170,2012-12-03 10:53:00
5:33 AM,48.2,46.4,93,29.63,0.8,South,15.0,-,N/A,,Overcast,170,2012-12-03 11:33:00
5:53 AM,48.9,46.9,93,29.62,0.5,South,15.0,-,N/A,Fog,Fog,170,2012-12-03 11:53:00
6:03 AM,48.2,48.2,100,29.60,0.2,South,12.7,-,N/A,Fog,Fog,170,2012-12-03 12:03:00
6:36 AM,50.0,48.2,94,29.58,0.5,South,16.1,-,N/A,Fog,Fog,180,2012-12-03 12:36:00
6:53 AM,51.1,50.0,96,29.60,0.8,South,17.3,-,N/A,,Mist,170,2012-12-03 12:53:00
7:00 AM,51.8,50.0,94,29.59,1.0,South,17.3,-,N/A,,Overcast,170,2012-12-03 13:00:00
7:48 AM,51.8,50.0,94,29.59,2.0,South,12.7,-,N/A,,Overcast,180,2012-12-03 13:48:00
7:53 AM,52.0,51.1,97,29.60,2.0,South,13.8,-,N/A,,Overcast,180,2012-12-03 13:53:00
8:01 AM,51.8,51.8,100,29.59,2.5,South,11.5,-,N/A,,Overcast,180,2012-12-03 14:01:00
8:20 AM,53.6,51.8,94,29.58,3.0,SSW,13.8,-,N/A,,Overcast,200,2012-12-03 14:20:00
8:53 AM,54.0,51.1,90,29.61,4.0,SW,17.3,23.0,N/A,,Overcast,220,2012-12-03 14:53:00
9:53 AM,52.0,48.0,86,29.63,5.0,WSW,19.6,-,N/A,,Mostly Cloudy,240,2012-12-03 15:53:00
10:53 AM,51.1,45.0,80,29.66,7.0,West,18.4,-,N/A,,Partly Cloudy,260,2012-12-03 16:53:00
11:53 AM,54.0,41.0,62,29.67,10.0,NW,18.4,31.1,N/A,,Clear,320,2012-12-03 17:53:00
12:53 PM,55.9,39.9,55,29.72,10.0,NW,23.0,33.4,N/A,,Clear,320,2012-12-03 18:53:00
1:53 PM,57.9,37.9,47,29.74,10.0,NNW,21.9,28.8,N/A,,Scattered Clouds,330,2012-12-03 19:53:00
2:53 PM,55.9,37.0,49,29.80,10.0,NW,20.7,27.6,N/A,,Partly Cloudy,310,2012-12-03 20:53:00
3:53 PM,54.0,30.0,40,29.83,10.0,NW,19.6,26.5,N/A,,Clear,310,2012-12-03 21:53:00
4:53 PM,46.9,28.9,50,29.89,10.0,WNW,8.1,-,N/A,,Clear,290,2012-12-03 22:53:00
5:53 PM,39.9,27.0,60,29.93,10.0,West,10.4,-,N/A,,Clear,280,2012-12-03 23:53:00
6:53 PM,39.0,26.1,60,29.96,10.0,West,9.2,-,N/A,,Clear,280,2012-12-04 00:53:00
7:53 PM,37.0,23.0,57,29.98,10.0,WNW,5.8,-,N/A,,Clear,300,2012-12-04 01:53:00
8:53 PM,34.0,21.9,61,30.00,10.0,West,10.4,-,N/A,,Clear,280,2012-12-04 02:53:00
9:53 PM,32.0,23.0,69,30.04,10.0,West,5.8,-,N/A,,Clear,280,2012-12-04 03:53:00
10:53 PM,28.9,21.0,72,30.05,10.0,West,6.9,-,N/A,,Clear,280,2012-12-04 04:53:00